This is the latest recevied weather packets stored in our database for station/object KD2RHT-13. If no packets are shown the sender has not sent any weather packets the latest 10 day(s).
| Time | Temp. | Humidity | Pressure | Rain* | Wind** | Luminosity | Snow |
|---|---|---|---|---|---|---|---|
| 1778078348 | 7.78° C | 99% | 1009.4 hPa | 1.27 mm | - | 112 W/m² | - |
| 1778078044 | 7.22° C | 99% | 1009.7 hPa | 1.27 mm | - | 89 W/m² | - |
| 1778077743 | 7.22° C | 99% | 1009.7 hPa | 1.78 mm | - | 95 W/m² | - |
| 1778077441 | 7.22° C | 99% | 1009.7 hPa | 1.78 mm | - | 71 W/m² | - |
| 1778077138 | 7.22° C | 99% | 1009.7 hPa | 1.27 mm | - | 82 W/m² | - |
| 1778076836 | 7.22° C | 99% | 1009.7 hPa | 3.05 mm | - | 74 W/m² | - |
| 1778076534 | 7.22° C | 99% | 1009.7 hPa | 1.78 mm | - | 60 W/m² | - |
| 1778076231 | 7.22° C | 99% | 1009.7 hPa | 0 mm | - | 56 W/m² | - |
| 1778075928 | 7.22° C | 99% | 1009.7 hPa | 1.27 mm | - | 57 W/m² | - |
| 1778075624 | 7.22° C | 99% | 1009.7 hPa | 1.27 mm | - | 57 W/m² | - |
| 1778075321 | 6.67° C | 99% | 1010 hPa | 0 mm | - | 41 W/m² | - |
| 1778075017 | 7.22° C | 99% | 1010 hPa | 1.78 mm | - | 33 W/m² | - |
| 1778074714 | 7.22° C | 99% | 1010 hPa | 1.27 mm | - | 45 W/m² | - |
| 1778074411 | 7.22° C | 99% | 1010.4 hPa | 3.05 mm | - | 35 W/m² | - |
| 1778074107 | 7.22° C | 99% | 1010.4 hPa | 1.78 mm | - | 39 W/m² | - |
| 1778073805 | 6.67° C | 99% | 1010 hPa | 1.27 mm | - | 39 W/m² | - |
| 1778073503 | 7.22° C | 99% | 1010 hPa | 3.05 mm | - | 35 W/m² | - |
| 1778073199 | 7.22° C | 99% | 1010 hPa | 3.05 mm | - | 35 W/m² | - |
| 1778072896 | 7.22° C | 99% | 1010.4 hPa | 3.05 mm | - | 42 W/m² | - |
| 1778072592 | 7.22° C | 99% | 1010.4 hPa | 4.83 mm | - | 39 W/m² | - |
| 1778072290 | 6.67° C | 99% | 1010.4 hPa | 3.05 mm | - | 34 W/m² | - |
| 1778071988 | 6.67° C | 99% | 1010.4 hPa | 4.83 mm | - | 29 W/m² | - |
| 1778071687 | 7.22° C | 99% | 1010 hPa | 4.83 mm | - | 23 W/m² | - |
| 1778071383 | 6.67° C | 99% | 1010.4 hPa | 6.1 mm | - | 21 W/m² | - |
| 1778071081 | 6.67° C | 99% | 1010 hPa | 4.32 mm | - | 19 W/m² | - |
* Rain latest hour (hover to see other rain measurements)
** Current wind speed in m/s (hover to see current wind gust speed)